Copper Harbor, MI

7:48 PM EST on February 13, 2016 (GMT -0500)
Copper Harbor

Weather History for KP59 - July, 2013

Change the Weather History Date:

Tuesday, July 16, 2013

  Actual Average Record
Temperature  
Mean Temperature 78 °F -  
Max Temperature 89 °F - - ()
Min Temperature 68 °F - - ()
Cooling Degree Days 12    
Growing Degree Days 28 (Base 50)    
Moisture  
Dew Point 68 °F    
Average Humidity 76    
Maximum Humidity 96    
Minimum Humidity 58    
Precipitation  
Precipitation 0.35 in - - ()
Sea Level Pressure  
Sea Level Pressure 30.13 in    
Wind  
Wind Speed 6 mph (WSW)    
Max Wind Speed 12 mph    
Max Gust Speed 18 mph    
T = Trace of Precipitation, MM = Missing Value Source: NWS Daily Summary

Daily Weather History Graph

Daily Weather History Graph

Search for Another Location

Airport or City:

Trip Planner

Search our weather history database for the weather conditions in past years. The results will help you decide how hot, cold, wet, or windy it might be!

Date:

Astronomy

Jul. 16, 2013 Rise Set
Actual Time 6:11 AM EDT 9:43 PM EDT
Civil Twilight 5:32 AM EDT 10:21 PM EDT
Nautical Twilight 4:41 AM EDT 11:12 PM EDT
Astronomical Twilight 3:32 AM EDT 12:20 AM EDT
Moon 3:14 PM EDT (7/16) 12:53 AM EDT (7/16)
Length of Visible Light 16h 48m
Length of Day
15h 32m
First Quarter, 56% of the Moon is Illuminated
Jul 16
First Quarter
Jul 22
Full
Jul 29
Last Quarter
Aug 6
New
Aug 14
First Quarter

Hourly Weather History & Observations

Time (EDT) Temp. Heat Index Dew Point Humidity Pressure Visibility Wind Dir Wind Speed Gust Speed Precip Events Conditions
12:51 AM 68.0 °F - 61.0 °F 78% 30.20 in - SSW 5.8 mph - N/A   Unknown
1:51 AM 70.0 °F - 61.0 °F 73% 30.19 in - Variable 3.5 mph - N/A   Unknown
2:51 AM 69.1 °F - 62.1 °F 78% 30.17 in - WSW 8.1 mph - N/A   Unknown
3:51 AM 68.0 °F - 62.1 °F 81% 30.17 in - SW 9.2 mph - N/A   Unknown
4:51 AM 68.0 °F - 62.1 °F 81% 30.16 in - SW 11.5 mph 17.3 mph N/A   Unknown
5:51 AM 70.0 °F - 64.9 °F 84% 30.16 in - WSW 8.1 mph - N/A   Unknown
6:51 AM 72.0 °F - 66.9 °F 84% 30.15 in - WSW 6.9 mph - N/A   Unknown
7:51 AM 73.9 °F - 68.0 °F 82% 30.15 in - Calm Calm - N/A   Unknown
8:51 AM 73.9 °F - 70.0 °F 87% 30.16 in - WSW 5.8 mph - N/A   Unknown
9:51 AM 71.1 °F - 70.0 °F 96% 30.17 in - WSW 5.8 mph - 0.34 in   Unknown
10:51 AM 73.9 °F - 70.0 °F 87% 30.14 in - Calm Calm - 0.01 in   Unknown
11:51 AM 79.0 °F - 72.0 °F 79% 30.14 in - WSW 10.4 mph 18.4 mph N/A   Unknown
12:51 PM 82.0 °F 87.4 °F 73.0 °F 74% 30.13 in - Calm Calm - N/A   Unknown
1:51 PM 84.9 °F 92.1 °F 73.9 °F 69% 30.12 in - Variable 6.9 mph - N/A   Unknown
2:51 PM 84.0 °F 90.2 °F 73.0 °F 69% 30.11 in - WSW 8.1 mph - N/A   Unknown
3:51 PM 84.9 °F 90.7 °F 72.0 °F 65% 30.10 in - Variable 3.5 mph - N/A   Unknown
4:51 PM 82.9 °F 85.4 °F 66.9 °F 58% 30.08 in - North 11.5 mph 16.1 mph N/A   Unknown
5:51 PM 87.1 °F 92.8 °F 71.1 °F 59% 30.09 in - Variable 6.9 mph - N/A   Unknown
6:51 PM 86.0 °F 91.5 °F 71.1 °F 61% 30.08 in - Variable 3.5 mph - N/A   Unknown
7:51 PM 84.0 °F 89.6 °F 72.0 °F 67% 30.07 in - SW 6.9 mph - N/A   Unknown
8:51 PM 78.1 °F - 70.0 °F 76% 30.07 in - WSW 8.1 mph 18.4 mph N/A   Unknown
9:51 PM 75.9 °F - 70.0 °F 82% 30.08 in - WSW 9.2 mph - N/A   Unknown
10:51 PM 75.9 °F - 70.0 °F 82% 30.10 in - WSW 6.9 mph - N/A   Unknown
11:51 PM 78.1 °F - 70.0 °F 76% 30.09 in - Variable 5.8 mph - N/A   Unknown